Stations météo

Publicité
Rouen, France (7037): Température de l'air & dewpoint: 19.05.2018 12:00:00 - 25.05.2018 12:00:00 (CEST)Rouen, France (7037): Température de l'air 5cm: 19.05.2018 12:00:00 - 25.05.2018 12:00:00 (CEST)Rouen, France (7037): Température de l'air -20cm & Température de l'air -100cm: 19.05.2018 12:00:00 - 25.05.2018 12:00:00 (CEST)Rouen, France (7037): Vitesse du vent & gusts: 19.05.2018 12:00:00 - 25.05.2018 12:00:00 (CEST)Rouen, France (7037): Direction du vent: 19.05.2018 12:00:00 - 25.05.2018 12:00:00 (CEST)Rouen, France (7037): reduced air pressure: 19.05.2018 12:00:00 - 25.05.2018 12:00:00 (CEST)Rouen, France (7037): visibility: 19.05.2018 12:00:00 - 25.05.2018 12:00:00 (CEST)Rouen, France (7037): Ensoleillement: 19.05.2018 12:00:00 - 25.05.2018 12:00:00 (CEST)Rouen, France (7037): Quantités de précipitations: 19.05.2018 12:00:00 - 25.05.2018 12:00:00 (CEST)
Date & Time tt [°C] td [°C] tt 5cm [°C] tt -20cm [°C] tt -100cm [°C] ff [km/h] ff [knt] fx [km/h] fx [knt] dd ppp [hPa] vv [km] sd [min] rr [mm]
25.05.2018 12:00:00 15,6 14,5 18,0 15,7 13,2 5 3 13 7 N 1018,1 3,1 0 0,0
25.05.2018 11:00:00 13,7 13,2 17,6 15,6 13,2 5 3 8 5 NNE 1018,1 1,2 0 0,0
25.05.2018 10:00:00 13,1 12,8 14,6 15,7 13,2 4 2 9 5 NNW 1018,3 1,0 0 0,0
25.05.2018 09:00:00 12,2 11,9 12,3 15,7 13,2 4 2 10 5 N 1018,1 0,1 0 0,0
25.05.2018 08:00:00 11,4 11,1 11,4 15,8 13,1 5 3 8 4 WNW 1018,1 0,1 0 0,0
25.05.2018 07:00:00 11,2 10,9 11,5 15,9 13,1 6 3 12 7 WNW 1017,9 0,1 0 0,0
25.05.2018 06:00:00 11,3 11,0 10,7 16,0 13,1 4 2 6 4 W 1017,7 0,1 0 0,0
25.05.2018 05:00:00 10,5 10,2 10,0 16,2 13,1 0 0 6 3 N 1017,5 0,1 0 0,0
25.05.2018 04:00:00 10,9 10,6 4,3 16,3 13,1 7 4 9 5 NNE 1017,2 0,1 0 0,2
25.05.2018 03:00:00 10,7 10,1 5,1 16,4 13,1 3 2 12 6 WNW 1017,4 0,6 0 0,0
25.05.2018 02:00:00 11,7 11,4 4,6 16,5 13,1 7 4 8 5 NNW 1017,3 1,6 0 0,0
25.05.2018 01:00:00 10,6 10,0 5,1 16,6 13,1 0 0 6 3 N 1017,9 0,7 0 0,0
25.05.2018 00:00:00 11,1 10,0 5,8 16,7 13,1 2 1 6 3 E 1017,7 1,4 0 0,0
24.05.2018 23:00:00 12,7 11,3 8,8 16,8 13,1 3 1 9 5 NW 1018,0 2,4 0 0,0
24.05.2018 22:00:00 13,5 12,2 9,6 16,8 13,1 7 4 13 7 NW 1017,5 3,6 0 0,0
24.05.2018 21:00:00 15,4 13,2 15,6 16,8 13,1 7 4 22 12 NNW 1017,1 4,8 0 0,0
24.05.2018 20:00:00 16,0 13,5 16,1 16,8 13,0 16 8 24 13 N 1016,9 8 0 0,0
24.05.2018 19:00:00 15,9 14,3 16,6 16,7 13,0 12 6 26 14 NW 1016,4 5 0 0,0
24.05.2018 18:00:00 17,9 16,6 17,6 16,5 13,0 12 7 28 15 N 1016,5 7 0 0,2
24.05.2018 17:00:00 18,9 14,0 17,7 16,3 13,0 19 11 29 16 N 1016,2 14 13 0,2
24.05.2018 16:00:00 22,4 13,5 28,3 16,1 13,0 7 4 22 12 SW 1016,1 19 38 0,0
24.05.2018 15:00:00 22,6 15,2 25,5 16,0 13,0 7 4 15 8 SSW 1016,4 17 42 0,0
24.05.2018 14:00:00 20,9 14,5 27,8 15,8 13,0 4 2 12 7 E 1017,3 17 35 0,0
24.05.2018 13:00:00 19,7 15,3 25,5 15,7 13,0 6 3 13 7 ENE 1017,7 16 14 0,0
24.05.2018 12:00:00 18,1 14,6 23,1 15,7 13,0 2 1 8 4 S 1018,3 8 38 0,0
24.05.2018 11:00:00 16,0 14,4 18,7 15,7 13,0 3 1 9 5 S 1018,6 4,8 0 0,0
24.05.2018 10:00:00 14,5 13,9 16,6 15,8 13,0 3 2 9 5 E 1018,9 2,7 0 0,0
24.05.2018 09:00:00 13,3 13,0 15,0 15,8 13,0 4 2 10 5 NE 1018,9 0,2 0 0,0
24.05.2018 08:00:00 12,5 12,2 13,1 15,9 13,0 6 4 13 7 NNE 1018,6 0,5 0 0,0
24.05.2018 07:00:00 12,5 12,2 12,3 15,9 13,0 6 4 12 6 N 1018,6 0,6 0 0,0
24.05.2018 06:00:00 12,2 11,9 12,1 16,0 13,0 6 4 9 5 NNW 1018,6 0,4 0 0,0
24.05.2018 05:00:00 12,0 11,7 12,1 16,1 13,0 5 3 9 5 NNW 1018,8 0,3 0 0,0
24.05.2018 04:00:00 12,2 11,7 12,2 16,2 13,0 6 3 12 6 N 1019,0 0,3 0 0,0
24.05.2018 03:00:00 12,2 11,7 12,2 16,2 13,0 8 4 12 7 NNW 1019,3 0,6 0 0,0
24.05.2018 02:00:00 12,3 11,7 12,3 16,3 12,9 7 4 13 7 NNW 1019,7 0,9 0 0,0
24.05.2018 01:00:00 12,7 11,8 11,9 16,3 12,9 8 5 14 8 N 1019,8 2,0 0 0,0
24.05.2018 00:00:00 13,1 12,0 11,6 16,4 12,9 6 4 13 7 NW 1019,8 3,1 0 0,0
23.05.2018 23:00:00 13,1 11,7 11,4 16,4 12,9 7 4 13 7 NW 1019,8 3,4 0 0,0
23.05.2018 22:00:00 14,4 12,3 14,2 16,4 12,9 11 6 19 10 NNE 1019,7 4,8 0 0,0
23.05.2018 21:00:00 14,9 12,2 15,2 16,4 12,9 12 6 18 10 NNE 1019,5 7 0 0,0
23.05.2018 20:00:00 15,3 12,2 16,4 16,4 12,9 13 7 23 12 NNE 1019,3 7 0 0,0
23.05.2018 19:00:00 15,4 12,0 17,1 16,3 12,9 16 8 26 14 NE 1019,4 8 0 0,0
23.05.2018 18:00:00 15,9 11,9 19,6 16,2 12,9 13 7 22 12 NNE 1019,4 9 0 0,0
23.05.2018 17:00:00 15,9 11,3 21,7 16,0 12,9 13 7 27 14 NNE 1019,6 10 9 0,0
23.05.2018 16:00:00 17,6 11,6 27,1 15,9 12,9 15 8 25 13 NNE 1019,4 11 52 0,0
23.05.2018 15:00:00 17,4 11,7 26,0 15,6 12,9 14 8 24 13 NNE 1019,8 9 2 0,0
23.05.2018 14:00:00 16,5 11,2 22,9 15,5 12,9 15 8 26 14 N 1020,1 9 0 0,0
23.05.2018 13:00:00 16,6 11,5 23,7 15,4 12,9 17 9 27 14 N 1020,1 9 32 0,0
23.05.2018 12:00:00 16,8 11,1 25,0 15,4 12,9 14 8 23 12 N 1020,1 9 60 0,0
23.05.2018 11:00:00 16,0 10,7 22,9 15,4 12,9 11 6 24 13 NNE 1020,1 8 55 0,0
23.05.2018 10:00:00 14,5 10,5 17,9 15,4 12,9 12 7 24 13 NNE 1020,2 8 49 0,0
23.05.2018 09:00:00 12,8 10,0 12,6 15,5 12,8 16 8 30 16 N 1019,9 13 15 0,0
23.05.2018 08:00:00 11,8 9,9 10,8 15,6 12,8 13 7 22 12 N 1019,6 9 0 0,0
23.05.2018 07:00:00 10,8 9,6 9,7 15,7 12,8 15 8 29 15 N 1018,9 6 0 0,0
23.05.2018 06:00:00 10,5 9,4 9,6 15,8 12,8 17 9 25 14 N 1018,4 6 0 0,0
23.05.2018 05:00:00 10,9 9,8 9,7 15,9 12,8 12 6 22 12 N 1018,2 5 0 0,0
23.05.2018 04:00:00 11,5 10,4 10,7 15,9 12,8 8 4 19 10 N 1018,0 5 0 0,0
23.05.2018 03:00:00 11,5 10,4 10,7 16,0 12,8 11 6 24 13 N 1017,7 5 0 0,0
23.05.2018 02:00:00 11,9 10,5 10,3 16,1 12,8 12 6 18 10 NNW 1017,7 8 0 0,0
23.05.2018 01:00:00 12,6 10,5 11,3 16,2 12,8 9 5 18 10 N 1017,5 11 0 0,0
23.05.2018 00:00:00 13,6 10,2 12,9 16,2 12,8 11 6 18 10 NNW 1017,1 18 0 0,0
22.05.2018 23:00:00 14,4 9,8 13,6 16,3 12,8 11 6 25 13 N 1016,9 25 0 0,0
22.05.2018 22:00:00 15,3 9,4 14,0 16,3 12,8 14 7 24 13 N 1016,3 42 0 0,0
22.05.2018 21:00:00 17,3 9,5 17,0 16,2 12,8 13 7 27 15 N 1015,6 50 0 0,0
22.05.2018 20:00:00 18,7 11,3 21,8 16,2 12,8 19 10 30 16 NNW 1015,2 28 13 0,0
22.05.2018 19:00:00 19,1 11,9 24,2 16,1 12,8 22 12 - - N 1014,6 24 1 0,0
22.05.2018 18:00:00 20,2 12,4 26,4 15,9 12,7 - - - - - 1014,2 24 3 0,0
22.05.2018 17:00:00 20,6 12,6 27,3 15,8 12,8 - - - - - 1013,9 26 1 0,0
22.05.2018 16:00:00 20,8 13,2 24,5 15,6 12,7 16 9 28 15 NNW 1013,6 20 22 0,0
22.05.2018 15:00:00 21,5 13,9 26,1 15,4 12,8 10 5 20 11 NNW 1013,5 20 42 0,0
22.05.2018 14:00:00 21,2 13,1 27,6 15,2 12,7 8 4 20 11 N 1013,8 19 39 0,0
22.05.2018 13:00:00 20,7 13,2 29,0 15,1 12,8 9 5 20 11 W 1013,8 20 60 0,0
22.05.2018 12:00:00 19,3 13,0 26,5 15,0 12,8 10 5 21 11 NNW 1013,8 12 60 0,0
22.05.2018 11:00:00 17,3 11,1 23,3 15,0 12,7 11 6 19 10 NW 1013,9 9 60 0,0
22.05.2018 10:00:00 16,3 11,4 17,7 15,0 12,8 6 3 13 7 WNW 1013,8 11 45 0,0
22.05.2018 09:00:00 14,1 10,1 13,6 15,1 12,7 10 5 15 8 NNW 1013,7 11 5 0,0
22.05.2018 08:00:00 11,9 9,5 10,3 15,2 12,8 8 5 13 7 WNW 1013,8 5 0 0,0
22.05.2018 07:00:00 11,0 9,3 6,9 15,3 12,7 7 4 13 7 NNW 1013,4 6 0 0,0
22.05.2018 06:00:00 10,6 9,0 6,8 15,4 12,7 7 4 13 7 NW 1013,0 4,5 0 0,0
22.05.2018 05:00:00 11,1 8,5 7,5 15,4 12,7 6 4 13 7 NW 1013,0 8 0 0,0
22.05.2018 04:00:00 12,5 9,9 9,5 15,5 12,7 8 4 12 6 NNW 1012,8 9 0 0,0
22.05.2018 03:00:00 13,3 11,0 10,9 15,6 12,7 6 3 12 7 NW 1012,9 10 0 0,0
22.05.2018 02:00:00 13,5 11,0 11,1 15,6 12,7 8 4 10 6 NNW 1012,7 13 0 0,0
22.05.2018 01:00:00 14,0 11,9 11,2 15,7 12,7 5 3 13 7 NNW 1013,1 9 0 0,0
22.05.2018 00:00:00 14,3 12,2 9,5 15,7 12,7 10 5 13 7 NNW 1013,1 7 0 0,0
21.05.2018 23:00:00 14,7 11,7 11,1 15,7 12,7 6 3 11 6 NW 1013,0 11 0 0,0
21.05.2018 22:00:00 16,9 12,4 15,1 15,7 12,7 6 4 14 7 N 1012,6 13 0 0,0
21.05.2018 21:00:00 18,2 12,6 17,9 15,7 12,7 10 5 16 8 N 1012,3 21 0 0,0
21.05.2018 20:00:00 18,8 12,3 19,2 15,7 12,7 10 5 20 11 NNE 1012,2 20 0 0,0
21.05.2018 19:00:00 18,6 13,0 18,2 15,6 12,7 10 5 20 11 N 1011,9 31 0 0,0
21.05.2018 18:00:00 17,6 12,5 17,1 15,5 12,7 12 7 27 15 N 1012,1 30 0 0,0
21.05.2018 17:00:00 18,1 13,0 19,4 15,3 12,7 18 10 30 16 NNW 1012,3 25 0 0,0
21.05.2018 16:00:00 20,7 11,3 25,7 15,2 12,7 5 3 18 10 E 1012,3 60 2 0,0
21.05.2018 15:00:00 21,7 12,5 25,4 15,0 12,7 9 5 18 10 N 1012,6 55 23 0,0
21.05.2018 14:00:00 21,4 13,1 26,1 14,8 12,7 7 4 21 11 ENE 1012,9 53 38 0,0
21.05.2018 13:00:00 19,3 11,8 25,2 14,7 12,7 11 6 19 10 NE 1013,4 49 24 0,0
21.05.2018 12:00:00 18,3 11,6 25,3 14,7 12,7 9 5 16 9 ENE 1013,8 44 41 0,0
21.05.2018 11:00:00 18,0 11,5 24,8 14,6 12,6 8 4 19 10 ENE 1014,1 23 60 0,0
21.05.2018 10:00:00 16,2 11,1 22,5 14,7 12,7 9 5 18 10 ENE 1014,7 7 60 0,0
21.05.2018 09:00:00 15,2 11,6 14,7 14,7 12,6 11 6 18 10 ENE 1014,9 6 54 0,0
21.05.2018 08:00:00 12,7 10,1 9,8 14,8 12,7 12 6 16 8 NE 1014,8 4,7 50 0,0
21.05.2018 07:00:00 10,7 9,5 7,1 15,0 12,7 13 7 16 9 NE 1015,3 4,8 0 0,0
21.05.2018 06:00:00 9,1 8,2 6,9 15,0 12,7 10 6 16 8 ENE 1015,4 3,4 0 0,0
21.05.2018 05:00:00 9,9 8,7 6,8 15,1 12,7 12 7 16 9 NE 1015,7 3,8 0 0,0
21.05.2018 04:00:00 11,0 9,6 9,0 15,2 12,7 11 6 16 8 NE 1016,0 3,7 0 0,0
21.05.2018 03:00:00 11,8 10,0 9,7 15,2 12,6 13 7 17 9 NE 1016,2 3,9 0 0,0
21.05.2018 02:00:00 12,4 10,5 10,2 15,3 12,6 13 7 16 8 NE 1016,8 4,3 0 0,0
21.05.2018 01:00:00 13,4 10,4 11,3 15,4 12,6 11 6 21 11 NE 1017,1 6 0 0,0
21.05.2018 00:00:00 13,6 10,2 11,6 15,4 12,6 15 8 23 12 NNE 1017,4 9 0 0,0
20.05.2018 23:00:00 14,2 10,2 11,4 15,4 12,6 12 7 17 9 N 1017,9 10 0 0,0
20.05.2018 22:00:00 16,0 9,0 11,6 15,4 12,6 10 5 13 7 NNE 1017,9 23 0 0,0
20.05.2018 21:00:00 17,3 9,2 15,9 15,3 12,6 10 5 19 10 NE 1017,8 32 0 0,0
20.05.2018 20:00:00 19,4 9,0 22,9 15,3 12,6 16 9 24 13 NE 1017,6 20 0 0,0
20.05.2018 19:00:00 20,4 9,3 26,7 15,1 12,6 15 8 26 14 E 1017,2 20 0 0,0
20.05.2018 18:00:00 20,9 8,2 29,3 14,9 12,6 9 5 24 13 ENE 1017,7 19 36 0,0
20.05.2018 17:00:00 20,9 10,1 30,4 14,8 12,6 13 7 26 14 ENE 1018,5 17 60 0,0
20.05.2018 16:00:00 21,1 9,3 25,9 14,5 12,6 11 6 29 16 ESE 1019,2 15 56 0,0
20.05.2018 15:00:00 21,1 10,3 30,3 14,3 12,6 13 7 26 14 E 1019,5 15 60 0,0
20.05.2018 14:00:00 18,9 10,2 29,6 14,2 12,6 12 6 22 12 E 1020,4 14 60 0,0
20.05.2018 13:00:00 17,2 11,0 27,5 14,1 12,6 10 6 20 11 ENE 1021,1 12 60 0,0
20.05.2018 12:00:00 14,5 9,9 18,7 14,1 12,6 11 6 23 12 NE 1021,8 10 49 0,0
20.05.2018 11:00:00 11,8 8,8 15,1 14,2 12,6 11 6 19 11 ENE 1022,4 7 2 0,0
20.05.2018 10:00:00 10,0 7,8 11,4 14,2 12,6 13 7 20 11 ENE 1022,4 5 0 0,0
20.05.2018 09:00:00 8,4 7,2 9,3 14,3 12,6 15 8 21 11 NE 1022,5 2,7 0 0,0
20.05.2018 08:00:00 8,2 7,0 5,9 14,4 12,6 18 10 27 15 NE 1022,2 2,2 34 0,0
20.05.2018 07:00:00 6,9 5,7 4,6 14,5 12,6 12 7 16 9 NNE 1022,1 2,6 0 0,2
20.05.2018 06:00:00 6,7 5,6 0,3 14,7 12,6 10 6 13 7 NE 1022,0 2,8 0 0,0
20.05.2018 05:00:00 6,7 5,2 0,6 14,8 12,6 10 5 12 7 NE 1022,2 2,8 0 0,0
20.05.2018 04:00:00 6,5 5,8 -0,4 14,9 12,6 8 4 14 8 NE 1022,4 4,1 0 0,0
20.05.2018 03:00:00 6,6 5,9 -0,1 15,1 12,6 3 1 6 4 NNE 1022,8 5 0 0,0
20.05.2018 02:00:00 7,4 6,2 3,0 15,1 12,6 6 4 15 8 NE 1023,1 7 0 0,0
20.05.2018 01:00:00 7,9 6,7 6,0 15,2 12,6 11 6 15 8 ENE 1023,0 15 0 0,0
20.05.2018 00:00:00 10,0 7,1 7,8 15,3 12,6 13 7 16 9 NE 1022,9 28 0 0,0
19.05.2018 23:00:00 10,9 7,2 8,5 15,3 12,5 12 7 19 10 NE 1022,6 33 0 0,0
19.05.2018 22:00:00 12,1 7,6 10,5 15,3 12,5 14 8 26 14 N 1022,3 32 0 0,0
19.05.2018 21:00:00 14,7 9,1 14,2 15,3 12,5 18 10 25 13 N 1021,7 32 31 0,0
19.05.2018 20:00:00 16,5 9,4 19,9 15,2 12,5 18 10 24 13 N 1021,2 19 60 0,0
19.05.2018 19:00:00 18,0 7,4 24,7 15,1 12,5 16 8 29 15 N 1021,0 50 60 0,0
19.05.2018 18:00:00 18,3 6,2 27,2 14,9 12,5 15 8 26 14 N 1021,3 35 50 0,0
19.05.2018 17:00:00 18,1 5,3 29,0 14,7 12,5 14 7 26 14 NE 1021,8 28 26 0,0
19.05.2018 16:00:00 17,8 4,7 28,0 14,5 12,5 10 6 26 14 NE 1022,4 20 0 0,0
19.05.2018 15:00:00 16,9 5,5 25,8 14,3 12,5 10 5 22 12 N 1022,8 18 30 0,0
19.05.2018 14:00:00 15,3 7,3 25,3 14,1 12,5 10 5 25 13 NNE 1023,1 18 60 0,0
19.05.2018 13:00:00 14,1 6,9 24,2 14,1 12,5 11 6 23 13 N 1023,6 19 60 0,0
19.05.2018 12:00:00 12,9 6,7 20,9 14,0 12,5 11 6 27 15 N 1023,8 19 60 0,0

tt = Température de l'air
td = dewpoint
tt 5cm = Température de l'air 5cm
tt -20cm = Température de l'air -20cm
tt -100cm = Température de l'air -100cm
ff = Vitesse du vent
fx = gusts
dd = Direction du vent
ppp = reduced air pressure
vv = visibility
sd = Ensoleillement
rr = Quantités de précipitations

stations d'obs. à proximité